TimeCEST,TemperatureF,Dew PointF,Humidity,Sea Level PressureIn,VisibilityMPH,Wind Direction,Wind SpeedMPH,Gust SpeedMPH,PrecipitationIn,Events,Conditions,WindDirDegrees,DateUTC
12:20 AM,57.2,53.6,88,29.86,6.2,SSW,4.6,-,N/A,,Scattered Clouds,210,2012-10-19 22:20:00
12:50 AM,57.2,53.6,88,29.83,6.2,South,5.8,-,N/A,,Partly Cloudy,170,2012-10-19 22:50:00
1:20 AM,59.0,55.4,88,29.86,6.2,South,5.8,-,N/A,,Mostly Cloudy,180,2012-10-19 23:20:00
1:50 AM,59.0,55.4,88,29.86,6.2,South,8.1,-,N/A,,Mostly Cloudy,190,2012-10-19 23:50:00
2:00 AM,60,55,79,29.87,9,South,6.7,,,,Partly Cloudy,190,2012-10-20 00:00:00
2:20 AM,59.0,55.4,88,29.86,6.2,South,5.8,-,N/A,,Scattered Clouds,190,2012-10-20 00:20:00
2:50 AM,59.0,55.4,88,29.86,6.2,South,8.1,-,N/A,,Partly Cloudy,180,2012-10-20 00:50:00
3:20 AM,59.0,55.4,88,29.86,6.2,SSW,10.4,-,N/A,,Scattered Clouds,210,2012-10-20 01:20:00
3:50 AM,59.0,55.4,88,29.86,6.2,SSW,9.2,-,N/A,,Mostly Cloudy,210,2012-10-20 01:50:00
4:20 AM,59.0,55.4,88,29.89,6.2,SW,8.1,-,N/A,Rain,Light Rain,220,2012-10-20 02:20:00
4:50 AM,59.0,55.4,88,29.89,6.2,SW,11.5,-,N/A,,Mostly Cloudy,230,2012-10-20 02:50:00
5:00 AM,58,55,85,29.90,7,SW,11.2,,,Rain,Light Rain,230,2012-10-20 03:00:00
5:20 AM,57.2,53.6,88,29.89,6.2,SW,11.5,-,N/A,,Mostly Cloudy,220,2012-10-20 03:20:00
5:50 AM,57.2,53.6,88,29.92,6.2,WSW,10.4,-,N/A,,Mostly Cloudy,240,2012-10-20 03:50:00
6:20 AM,57.2,53.6,88,29.92,6.2,WSW,10.4,-,N/A,,Mostly Cloudy,240,2012-10-20 04:20:00
6:50 AM,57.2,51.8,82,29.95,6.2,WSW,9.2,-,N/A,,Mostly Cloudy,240,2012-10-20 04:50:00
7:20 AM,57.2,51.8,82,29.95,6.2,WSW,8.1,-,N/A,,Mostly Cloudy,240,2012-10-20 05:20:00
7:50 AM,57.2,51.8,82,29.98,6.2,SW,8.1,-,N/A,,Mostly Cloudy,230,2012-10-20 05:50:00
8:00 AM,56,52,83,29.98,7,SW,6.7,,,,Mostly Cloudy,230,2012-10-20 06:00:00
8:20 AM,55.4,51.8,88,29.98,6.2,SW,5.8,-,N/A,,Mostly Cloudy,230,2012-10-20 06:20:00
8:50 AM,55.4,51.8,88,30.01,6.2,WSW,5.8,-,N/A,,Mostly Cloudy,240,2012-10-20 06:50:00
9:20 AM,57.2,51.8,82,30.01,6.2,West,8.1,-,N/A,,Mostly Cloudy,270,2012-10-20 07:20:00
9:50 AM,55.4,51.8,88,30.04,6.2,WNW,6.9,-,N/A,,Mostly Cloudy,290,2012-10-20 07:50:00
10:20 AM,57.2,51.8,82,30.04,6.2,WNW,8.1,-,N/A,,Mostly Cloudy,290,2012-10-20 08:20:00
10:50 AM,57.2,51.8,82,30.04,6.2,WNW,6.9,-,N/A,,Mostly Cloudy,290,2012-10-20 08:50:00
11:00 AM,57,51,74,30.05,7,WNW,6.7,,,,Mostly Cloudy,290,2012-10-20 09:00:00
11:20 AM,57.2,51.8,82,30.04,6.2,WNW,8.1,-,N/A,,Mostly Cloudy,290,2012-10-20 09:20:00
11:50 AM,57.2,51.8,82,30.06,6.2,WNW,8.1,-,N/A,,Mostly Cloudy,290,2012-10-20 09:50:00
12:20 PM,57.2,51.8,82,30.06,6.2,NW,5.8,-,N/A,,Mostly Cloudy,310,2012-10-20 10:20:00
12:50 PM,57.2,50.0,77,30.06,6.2,NW,6.9,-,N/A,Rain,Light Rain,310,2012-10-20 10:50:00
1:20 PM,57.2,51.8,82,30.06,6.2,NW,4.6,-,N/A,Rain,Light Rain,310,2012-10-20 11:20:00
1:50 PM,57.2,51.8,82,30.06,6.2,Variable,2.3,-,N/A,Rain,Light Rain,0,2012-10-20 11:50:00
2:00 PM,57,52,76,30.09,9,ENE,2.2,,,Rain,Light Rain,60,2012-10-20 12:00:00
2:20 PM,57.2,51.8,82,30.06,6.2,East,4.6,-,N/A,Rain,Light Rain,90,2012-10-20 12:20:00
2:50 PM,55.4,51.8,88,30.06,6.2,East,4.6,-,N/A,Rain,Light Rain,80,2012-10-20 12:50:00
3:20 PM,57.2,51.8,82,30.06,6.2,East,4.6,-,N/A,Rain,Light Rain,90,2012-10-20 13:20:00
3:50 PM,57.2,51.8,82,30.06,6.2,Variable,2.3,-,N/A,,Scattered Clouds,0,2012-10-20 13:50:00
4:20 PM,57.2,51.8,82,30.06,6.2,NNW,4.6,-,N/A,,Scattered Clouds,340,2012-10-20 14:20:00
4:50 PM,55.4,51.8,88,30.06,6.2,North,5.8,-,N/A,,Scattered Clouds,10,2012-10-20 14:50:00
5:00 PM,56,51,80,30.07,9,North,6.7,,,,Partly Cloudy,10,2012-10-20 15:00:00
5:20 PM,55.4,50.0,82,30.06,6.2,ENE,4.6,-,N/A,,Scattered Clouds,60,2012-10-20 15:20:00
5:50 PM,55.4,50.0,82,30.06,6.2,NE,4.6,-,N/A,,Scattered Clouds,50,2012-10-20 15:50:00
6:20 PM,55.4,50.0,82,30.06,6.2,NNE,3.5,-,N/A,,Partly Cloudy,30,2012-10-20 16:20:00
6:50 PM,55.4,50.0,82,30.06,6.2,NE,4.6,-,N/A,,Partly Cloudy,50,2012-10-20 16:50:00
7:20 PM,55.4,50.0,82,30.06,6.2,NE,5.8,-,N/A,,Partly Cloudy,40,2012-10-20 17:20:00
7:50 PM,55.4,50.0,82,30.06,6.2,NNE,4.6,-,N/A,Rain,Light Rain,20,2012-10-20 17:50:00
8:00 PM,55,51,81,30.09,12,NNE,4.5,,,Rain,Light Rain,20,2012-10-20 18:00:00
8:20 PM,55.4,50.0,82,30.06,6.2,NE,4.6,-,N/A,,Mostly Cloudy,40,2012-10-20 18:20:00
8:50 PM,55.4,51.8,88,30.06,6.2,NE,5.8,-,N/A,,Mostly Cloudy,40,2012-10-20 18:50:00
9:20 PM,55.4,50.0,82,30.06,6.2,NE,4.6,-,N/A,,Mostly Cloudy,40,2012-10-20 19:20:00
9:50 PM,55.4,50.0,82,30.06,6.2,NNE,6.9,-,N/A,,Mostly Cloudy,30,2012-10-20 19:50:00
10:20 PM,55.4,50.0,82,30.06,6.2,NNE,8.1,-,N/A,,Mostly Cloudy,30,2012-10-20 20:20:00
10:50 PM,55.4,51.8,88,30.06,6.2,NE,8.1,-,N/A,,Mostly Cloudy,50,2012-10-20 20:50:00
11:00 PM,55,51,83,30.07,19,NE,6.7,,,,Partly Cloudy,50,2012-10-20 21:00:00
11:20 PM,55.4,51.8,88,30.06,3.7,NE,6.9,-,N/A,Rain,Light Rain,40,2012-10-20 21:20:00
11:50 PM,55.4,51.8,88,30.06,2.5,NNE,8.1,-,N/A,Rain,Light Rain,20,2012-10-20 21:50:00